| time (UTC) | temp C | wind direction | speed KPH | gust KPH | rain 1hr cm | rain 24hr cm | rain mn cm | humidity % | barometer mb |
| 20260504050444 | 3 | 170 | 0.0 | 1.6 | 0.00 | 0.00 | 0.00 | 88 | 1015.8 |
| 20260504045942 | 3 | 29 | 0.0 | 3.2 | 0.00 | 0.00 | 0.00 | 87 | 1015.9 |
| 20260504045437 | 3 | 49 | 0.0 | 0.0 | 0.00 | 0.00 | 0.00 | 84 | 1015.9 |
| 20260504044933 | 4 | 55 | 0.0 | 3.2 | 0.00 | 0.00 | 0.00 | 82 | 1015.8 |
| 20260504044431 | 5 | 3 | 0.0 | 3.2 | 0.00 | 0.00 | 0.00 | 80 | 1015.9 |
| 20260504043928 | 5 | 75 | 1.6 | 3.2 | 0.00 | 0.00 | 0.00 | 81 | 1015.9 |
| 20260504043425 | 5 | 153 | 3.2 | 3.2 | 0.00 | 0.00 | 0.00 | 82 | 1015.8 |
| 20260504042923 | 5 | 89 | 0.0 | 1.6 | 0.00 | 0.00 | 0.00 | 81 | 1015.8 |
| 20260504042419 | 5 | 66 | 1.6 | 1.6 | 0.00 | 0.00 | 0.00 | 78 | 1015.8 |
| 20260504041916 | 5 | 112 | 1.6 | 3.2 | 0.00 | 0.00 | 0.00 | 76 | 1015.8 |
| 20260504041412 | 6 | 170 | 3.2 | 4.8 | 0.00 | 0.00 | 0.00 | 74 | 1015.9 |
| 20260504040908 | 6 | 164 | 3.2 | 4.8 | 0.00 | 0.00 | 0.00 | 71 | 1015.6 |
| 20260504040406 | 7 | 147 | 3.2 | 3.2 | 0.00 | 0.00 | 0.00 | 65 | 1015.8 |
| 20260504035901 | 7 | 155 | 0.0 | 3.2 | 0.00 | 0.00 | 0.00 | 66 | 1015.7 |
| 20260504035359 | 7 | 138 | 0.0 | 3.2 | 0.00 | 0.00 | 0.00 | 65 | 1015.8 |
| 20260504034855 | 7 | 171 | 1.6 | 1.6 | 0.00 | 0.00 | 0.00 | 64 | 1015.6 |
| 20260504034353 | 7 | 194 | 0.0 | 1.6 | 0.00 | 0.00 | 0.00 | 66 | 1015.7 |
| 20260504033850 | 7 | 169 | 0.0 | 1.6 | 0.00 | 0.00 | 0.00 | 64 | 1015.5 |
| 20260504033348 | 8 | 151 | 1.6 | 3.2 | 0.00 | 0.00 | 0.00 | 63 | 1015.7 |
| 20260504032844 | 8 | 172 | 1.6 | 3.2 | 0.00 | 0.00 | 0.00 | 60 | 1015.5 |
| 20260504032342 | 8 | 166 | 3.2 | 3.2 | 0.00 | 0.00 | 0.00 | 59 | 1015.5 |
| 20260504031838 | 8 | 180 | 3.2 | 3.2 | 0.00 | 0.00 | 0.00 | 60 | 1015.5 |
| 20260504031336 | 8 | 171 | 3.2 | 4.8 | 0.00 | 0.00 | 0.00 | 60 | 1015.5 |
| 20260504030831 | 9 | 165 | 3.2 | 3.2 | 0.00 | 0.00 | 0.00 | 57 | 1015.5 |
| 20260504030329 | 9 | 184 | 1.6 | 3.2 | 0.00 | 0.00 | 0.00 | 56 | 1015.5 |
| 20260504025825 | 9 | 181 | 1.6 | 3.2 | 0.00 | 0.00 | 0.00 | 56 | 1015.5 |
| 20260504025322 | 9 | 174 | 0.0 | 3.2 | 0.00 | 0.00 | 0.00 | 57 | 1015.6 |
| 20260504024819 | 8 | 188 | 1.6 | 3.2 | 0.00 | 0.00 | 0.00 | 57 | 1015.5 |
| 20260504024315 | 9 | 175 | 3.2 | 4.8 | 0.00 | 0.00 | 0.00 | 56 | 1015.6 |
| 20260504023812 | 10 | 175 | 1.6 | 3.2 | 0.00 | 0.00 | 0.00 | 53 | 1015.5 |
| 20260504023309 | 10 | 167 | 1.6 | 3.2 | 0.00 | 0.00 | 0.00 | 54 | 1015.4 |
| 20260504022805 | 10 | 159 | 0.0 | 3.2 | 0.00 | 0.00 | 0.00 | 53 | 1015.5 |
| 20260504022301 | 10 | 145 | 0.0 | 1.6 | 0.00 | 0.00 | 0.00 | 53 | 1015.5 |
| 20260504021758 | 10 | 141 | 1.6 | 1.6 | 0.00 | 0.00 | 0.00 | 53 | 1015.5 |
| 20260504021256 | 10 | 213 | 3.2 | 3.2 | 0.00 | 0.00 | 0.00 | 53 | 1015.6 |
| 20260504020752 | 10 | 173 | 1.6 | 3.2 | 0.00 | 0.00 | 0.00 | 54 | 1015.5 |
| 20260504020249 | 10 | 163 | 1.6 | 3.2 | 0.00 | 0.00 | 0.00 | 53 | 1015.3 |
| 20260504015745 | 10 | 187 | 3.2 | 3.2 | 0.00 | 0.00 | 0.00 | 52 | 1015.4 |
| 20260504015242 | 10 | 176 | 3.2 | 3.2 | 0.00 | 0.00 | 0.00 | 53 | 1015.4 |
| 20260504014737 | 10 | 163 | 0.0 | 3.2 | 0.00 | 0.00 | 0.00 | 55 | 1015.3 |
| 20260504014234 | 8 | 135 | 0.0 | 3.2 | 0.00 | 0.00 | 0.00 | 59 | 1015.3 |
| 20260504013732 | 8 | 109 | 0.0 | 1.6 | 0.00 | 0.00 | 0.00 | 59 | 1015.1 |
| 20260504013229 | 8 | 319 | 0.0 | 0.0 | 0.00 | 0.00 | 0.00 | 59 | 1015.3 |
| 20260504012726 | 9 | 126 | 0.0 | 1.6 | 0.00 | 0.00 | 0.00 | 58 | 1015.4 |
| 20260504012224 | 9 | 131 | 0.0 | 1.6 | 0.00 | 0.00 | 0.00 | 58 | 1015.3 |
| 20260504011720 | 9 | 106 | 0.0 | 3.2 | 0.00 | 0.00 | 0.00 | 58 | 1015.3 |
| 20260504011217 | 9 | 136 | 0.0 | 1.6 | 0.00 | 0.00 | 0.00 | 58 | 1015.1 |
| 20260504010713 | 10 | 320 | 0.0 | 1.6 | 0.00 | 0.00 | 0.00 | 57 | 1015.3 |
| 20260504010209 | 10 | 135 | 0.0 | 0.0 | 0.00 | 0.00 | 0.00 | 55 | 1015.1 |
| 20260504005705 | 10 | 113 | 0.0 | 1.6 | 0.00 | 0.00 | 0.00 | 54 | 1015.2 |
| 20260504005203 | 10 | 124 | 0.0 | 1.6 | 0.00 | 0.00 | 0.00 | 53 | 1015.1 |
| 20260504004700 | 11 | 119 | 0.0 | 0.0 | 0.00 | 0.00 | 0.00 | 51 | 1015.1 |
| 20260504004157 | 11 | 110 | 0.0 | 3.2 | 0.00 | 0.00 | 0.00 | 51 | 1015.1 |
| 20260504003654 | 11 | 89 | 0.0 | 4.8 | 0.00 | 0.00 | 0.00 | 51 | 1015.0 |
| 20260504003151 | 11 | 131 | 0.0 | 3.2 | 0.00 | 0.00 | 0.00 | 49 | 1014.9 |
| 20260504002647 | 12 | 180 | 3.2 | 4.8 | 0.00 | 0.00 | 0.00 | 49 | 1014.9 |
| 20260504002145 | 11 | 171 | 0.0 | 4.8 | 0.00 | 0.00 | 0.00 | 49 | 1014.8 |
| 20260504001643 | 12 | 194 | 0.0 | 1.6 | 0.00 | 0.00 | 0.00 | 49 | 1014.8 |
| 20260504001138 | 12 | 168 | 3.2 | 4.8 | 0.00 | 0.00 | 0.00 | 47 | 1014.6 |
| 20260504000636 | 12 | 157 | 0.0 | 1.6 | 0.00 | 0.00 | 0.00 | 49 | 1014.7 |
| 20260504000133 | 12 | 44 | 0.0 | 6.4 | 0.00 | 0.00 | 0.00 | 47 | 1014.7 |
| 20260503235631 | 13 | 188 | 3.2 | 8.0 | 0.00 | 0.00 | 0.00 | 44 | 1014.4 |
| 20260503235127 | 13 | 161 | 3.2 | 4.8 | 0.00 | 0.00 | 0.00 | 44 | 1014.5 |
| 20260503234626 | 13 | 197 | 3.2 | 6.4 | 0.00 | 0.00 | 0.00 | 44 | 1014.5 |
| 20260503234123 | 13 | 204 | 1.6 | 6.4 | 0.00 | 0.00 | 0.00 | 44 | 1014.6 |
| 20260503233620 | 14 | 225 | 3.2 | 9.7 | 0.00 | 0.00 | 0.00 | 42 | 1014.4 |
| 20260503233116 | 14 | 199 | 6.4 | 9.7 | 0.00 | 0.00 | 0.00 | 42 | 1014.6 |
| 20260503232613 | 15 | 199 | 6.4 | 8.0 | 0.00 | 0.00 | 0.00 | 42 | 1014.4 |
| 20260503232110 | 15 | 215 | 3.2 | 8.0 | 0.00 | 0.00 | 0.00 | 39 | 1014.4 |
| 20260503231608 | 15 | 206 | 4.8 | 6.4 | 0.00 | 0.00 | 0.00 | 39 | 1014.5 |
| 20260503231104 | 15 | 186 | 0.0 | 11.3 | 0.00 | 0.00 | 0.00 | 39 | 1014.5 |
| 20260503230601 | 15 | 339 | 4.8 | 8.0 | 0.00 | 0.00 | 0.00 | 38 | 1014.5 |
| 20260503230059 | 15 | 180 | 6.4 | 9.7 | 0.00 | 0.00 | 0.00 | 37 | 1014.6 |
| 20260503225555 | 15 | 244 | 4.8 | 17.7 | 0.00 | 0.00 | 0.00 | 40 | 1014.4 |
| 20260503225050 | 15 | 234 | 6.4 | 12.9 | 0.00 | 0.00 | 0.00 | 38 | 1014.6 |
| 20260503224548 | 15 | 215 | 4.8 | 11.3 | 0.00 | 0.00 | 0.00 | 37 | 1014.4 |
| 20260503224046 | 16 | 146 | 3.2 | 14.5 | 0.00 | 0.00 | 0.00 | 37 | 1014.2 |
| 20260503223544 | 16 | 247 | 1.6 | 9.7 | 0.00 | 0.00 | 0.00 | 35 | 1014.4 |
| 20260503223039 | 16 | 271 | 3.2 | 11.3 | 0.00 | 0.00 | 0.00 | 37 | 1014.4 |
| 20260503222537 | 15 | 250 | 4.8 | 9.7 | 0.00 | 0.00 | 0.00 | 37 | 1014.6 |
| 20260503222035 | 15 | 318 | 4.8 | 11.3 | 0.00 | 0.00 | 0.00 | 37 | 1014.7 |
| 20260503221533 | 16 | 216 | 6.4 | 12.9 | 0.00 | 0.00 | 0.00 | 37 | 1014.6 |
| 20260503221030 | 16 | 253 | 4.8 | 16.1 | 0.00 | 0.00 | 0.00 | 35 | 1014.6 |
| 20260503220526 | 15 | 206 | 6.4 | 17.7 | 0.00 | 0.00 | 0.00 | 35 | 1014.4 |
| 20260503220023 | 16 | 244 | 4.8 | 8.0 | 0.00 | 0.00 | 0.00 | 38 | 1014.4 |
| 20260503215520 | 16 | 225 | 16.1 | 17.7 | 0.00 | 0.00 | 0.00 | 34 | 1014.6 |
| 20260503215017 | 16 | 292 | 6.4 | 17.7 | 0.00 | 0.00 | 0.00 | 36 | 1014.4 |
| 20260503214516 | 15 | 210 | 6.4 | 16.1 | 0.00 | 0.00 | 0.00 | 39 | 1014.3 |
| 20260503214012 | 16 | 53 | 6.4 | 16.1 | 0.00 | 0.00 | 0.00 | 36 | 1014.5 |
| 20260503213511 | 16 | 221 | 6.4 | 14.5 | 0.00 | 0.00 | 0.00 | 36 | 1014.3 |
| 20260503213007 | 15 | 248 | 1.6 | 14.5 | 0.00 | 0.00 | 0.00 | 39 | 1014.4 |
| 20260503212504 | 15 | 317 | 3.2 | 22.5 | 0.00 | 0.00 | 0.00 | 38 | 1014.4 |
| 20260503212001 | 16 | 228 | 8.0 | 16.1 | 0.00 | 0.00 | 0.00 | 36 | 1014.3 |
| 20260503211458 | 16 | 315 | 9.7 | 20.9 | 0.00 | 0.00 | 0.00 | 34 | 1014.4 |
| 20260503210954 | 17 | 272 | 4.8 | 12.9 | 0.00 | 0.00 | 0.00 | 37 | 1014.2 |
| 20260503210451 | 16 | 240 | 8.0 | 14.5 | 0.00 | 0.00 | 0.00 | 37 | 1014.2 |
| 20260503205946 | 16 | 210 | 3.2 | 11.3 | 0.00 | 0.00 | 0.00 | 37 | 1014.2 |
| 20260503205443 | 15 | 280 | 6.4 | 22.5 | 0.00 | 0.00 | 0.00 | 36 | 1014.3 |
| 20260503204939 | 16 | 258 | 8.0 | 12.9 | 0.00 | 0.00 | 0.00 | 36 | 1014.2 |
| 20260503204436 | 16 | 231 | 6.4 | 19.3 | 0.00 | 0.00 | 0.00 | 36 | 1014.4 |
| 20260503203933 | 16 | 285 | 6.4 | 17.7 | 0.00 | 0.00 | 0.00 | 35 | 1014.3 |
| 20260503203431 | 17 | 309 | 14.5 | 16.1 | 0.00 | 0.00 | 0.00 | 35 | 1014.3 |
| 20260503202928 | 16 | 242 | 9.7 | 17.7 | 0.00 | 0.00 | 0.00 | 37 | 1014.4 |
| 20260503202426 | 15 | 297 | 9.7 | 24.1 | 0.00 | 0.00 | 0.00 | 34 | 1014.2 |
| 20260503201924 | 16 | 288 | 14.5 | 20.9 | 0.00 | 0.00 | 0.00 | 36 | 1014.6 |
| 20260503201420 | 16 | 324 | 20.9 | 22.5 | 0.00 | 0.00 | 0.00 | 37 | 1014.1 |
| 20260503200918 | 16 | 253 | 6.4 | 19.3 | 0.00 | 0.00 | 0.00 | 35 | 1014.2 |
| 20260503200414 | 17 | 252 | 4.8 | 19.3 | 0.00 | 0.00 | 0.00 | 35 | 1014.3 |
| 20260503195911 | 15 | 293 | 6.4 | 14.5 | 0.00 | 0.00 | 0.00 | 38 | 1014.3 |
| 20260503195408 | 15 | 297 | 4.8 | 16.1 | 0.00 | 0.00 | 0.00 | 38 | 1014.5 |
| 20260503194905 | 16 | 247 | 4.8 | 19.3 | 0.00 | 0.00 | 0.00 | 39 | 1014.6 |
| 20260503194401 | 16 | 319 | 14.5 | 25.7 | 0.00 | 0.00 | 0.00 | 38 | 1014.7 |
| 20260503193857 | 15 | 348 | 14.5 | 22.5 | 0.00 | 0.00 | 0.00 | 36 | 1014.8 |
| 20260503193353 | 15 | 303 | 9.7 | 24.1 | 0.00 | 0.00 | 0.00 | 35 | 1014.8 |
| 20260503192849 | 15 | 177 | 3.2 | 16.1 | 0.00 | 0.00 | 0.00 | 38 | 1014.9 |
| 20260503192344 | 16 | 303 | 3.2 | 12.9 | 0.00 | 0.00 | 0.00 | 41 | 1014.9 |
| 20260503191842 | 15 | 279 | 9.7 | 17.7 | 0.00 | 0.00 | 0.00 | 39 | 1014.9 |
| 20260503191339 | 16 | 319 | 8.0 | 20.9 | 0.00 | 0.00 | 0.00 | 36 | 1015.0 |
| 20260503190835 | 15 | 356 | 4.8 | 9.7 | 0.00 | 0.00 | 0.00 | 37 | 1015.1 |
| 20260503190332 | 15 | 332 | 14.5 | 22.5 | 0.00 | 0.00 | 0.00 | 39 | 1015.2 |
| 20260503185829 | 16 | 299 | 9.7 | 24.1 | 0.00 | 0.00 | 0.00 | 36 | 1015.3 |
| 20260503185325 | 15 | 305 | 3.2 | 14.5 | 0.00 | 0.00 | 0.00 | 42 | 1015.1 |
| 20260503184820 | 15 | 301 | 14.5 | 20.9 | 0.00 | 0.00 | 0.00 | 38 | 1015.3 |
| 20260503184316 | 15 | 335 | 4.8 | 14.5 | 0.00 | 0.00 | 0.00 | 37 | 1015.4 |
| 20260503183811 | 15 | 302 | 6.4 | 24.1 | 0.00 | 0.00 | 0.00 | 38 | 1015.2 |
| 20260503183309 | 15 | 322 | 14.5 | 25.7 | 0.00 | 0.00 | 0.00 | 38 | 1015.3 |
| 20260503182806 | 15 | 322 | 17.7 | 24.1 | 0.00 | 0.00 | 0.00 | 35 | 1015.4 |
| 20260503182306 | 15 | 216 | 3.2 | 12.9 | 0.00 | 0.00 | 0.00 | 39 | 1015.3 |
| 20260503181802 | 14 | 321 | 9.7 | 29.0 | 0.00 | 0.00 | 0.00 | 39 | 1015.3 |
| 20260503181259 | 15 | 323 | 4.8 | 11.3 | 0.00 | 0.00 | 0.00 | 35 | 1015.6 |
| 20260503180755 | 15 | 127 | 1.6 | 6.4 | 0.00 | 0.00 | 0.00 | 39 | 1015.5 |
| 20260503180254 | 14 | 286 | 4.8 | 24.1 | 0.00 | 0.00 | 0.00 | 42 | 1015.7 |
| 20260503175749 | 15 | 298 | 14.5 | 19.3 | 0.00 | 0.00 | 0.00 | 34 | 1015.6 |
| 20260503175248 | 13 | 342 | 8.0 | 22.5 | 0.00 | 0.00 | 0.00 | 36 | 1015.6 |
| 20260503174743 | 15 | 279 | 4.8 | 8.0 | 0.00 | 0.00 | 0.00 | 36 | 1015.8 |
| 20260503174242 | 13 | 348 | 16.1 | 20.9 | 0.00 | 0.00 | 0.00 | 40 | 1015.7 |
| 20260503173742 | 12 | 356 | 4.8 | 11.3 | 0.00 | 0.00 | 0.00 | 41 | 1016.2 |
| 20260503173238 | 12 | 345 | 8.0 | 24.1 | 0.00 | 0.00 | 0.00 | 36 | 1016.4 |
| 20260503172735 | 13 | 333 | 11.3 | 19.3 | 0.00 | 0.00 | 0.00 | 40 | 1016.2 |
| 20260503172232 | 13 | 345 | 14.5 | 22.5 | 0.00 | 0.00 | 0.00 | 39 | 1016.4 |
| 20260503171729 | 12 | 335 | 14.5 | 27.4 | 0.00 | 0.00 | 0.00 | 39 | 1016.2 |
| 20260503171226 | 13 | 323 | 12.9 | 25.7 | 0.00 | 0.00 | 0.00 | 38 | 1016.5 |
| 20260503170723 | 13 | 34 | 0.0 | 12.9 | 0.00 | 0.00 | 0.00 | 42 | 1016.4 |
| 20260503170220 | 13 | 354 | 8.0 | 17.7 | 0.00 | 0.00 | 0.00 | 42 | 1016.5 |
| 20260503160141 | 11 | 298 | 4.8 | 20.9 | 0.00 | 0.00 | 0.00 | 46 | 1017.3 |
| 20260503150611 | 10 | 356 | 11.3 | 12.9 | 0.00 | 0.00 | 0.00 | 49 | 1017.7 |
| 20260503150108 | 10 | 299 | 9.7 | 25.7 | 0.00 | 0.00 | 0.00 | 46 | 1017.7 |
| 20260503130955 | 8 | 331 | 9.7 | 14.5 | 0.00 | 0.00 | 0.00 | 52 | 1018.2 |
| 20260503130453 | 7 | 0 | 9.7 | 29.0 | 0.00 | 0.00 | 0.00 | 54 | 1018.3 |
| 20260503110337 | 3 | 200 | 4.8 | 6.4 | 0.00 | 0.00 | 0.00 | 74 | 1017.8 |
| 20260503090223 | 3 | 125 | 0.0 | 4.8 | 0.00 | 0.00 | 0.00 | 73 | 1016.6 |
| 20260503081151 | 4 | 314 | 3.2 | 8.0 | 0.00 | 0.00 | 0.00 | 68 | 1016.3 |
| 20260503080646 | 4 | 309 | 1.6 | 4.8 | 0.00 | 0.00 | 0.00 | 70 | 1016.4 |
| 20260503080144 | 5 | 9 | 4.8 | 4.8 | 0.00 | 0.00 | 0.00 | 71 | 1016.4 |
| 20260503072621 | 5 | 352 | 3.2 | 6.4 | 0.00 | 0.00 | 0.00 | 67 | 1016.1 |
| 20260503072117 | 5 | 353 | 4.8 | 6.4 | 0.00 | 0.00 | 0.00 | 66 | 1016.1 |
| 20260503071614 | 5 | 34 | 1.6 | 6.4 | 0.00 | 0.00 | 0.00 | 67 | 1016.1 |
| 20260503071111 | 5 | 58 | 8.0 | 9.7 | 0.00 | 0.00 | 0.00 | 67 | 1016.1 |
| 20260503070608 | 5 | 356 | 3.2 | 6.4 | 0.00 | 0.00 | 0.00 | 66 | 1015.9 |
| 20260503070106 | 6 | 356 | 4.8 | 8.0 | 0.00 | 0.00 | 0.00 | 65 | 1015.7 |
| 20260503055026 | 7 | 57 | 12.9 | 14.5 | 0.00 | 0.00 | 0.00 | 61 | 1016.2 |
| 20260503054522 | 7 | 34 | 9.7 | 16.1 | 0.00 | 0.00 | 0.00 | 60 | 1015.9 |
| 20260503054020 | 6 | 50 | 8.0 | 8.0 | 0.00 | 0.00 | 0.00 | 65 | 1016.1 |